TimeEST,TemperatureF,Dew PointF,Humidity,Sea Level PressureIn,VisibilityMPH,Wind Direction,Wind SpeedMPH,Gust SpeedMPH,PrecipitationIn,Events,Conditions,WindDirDegrees,DateUTC
12:04 AM,26.6,23.0,86,30.01,10.0,NNW,6.9,-,N/A,,Overcast,330,2013-02-16 05:04:00
12:19 AM,26.6,21.2,80,30.01,10.0,NNW,8.1,-,N/A,,Mostly Cloudy,330,2013-02-16 05:19:00
12:53 AM,26.1,19.9,78,30.06,10.0,North,6.9,-,N/A,,Overcast,350,2013-02-16 05:53:00
1:41 AM,26.6,21.2,80,30.01,3.0,NNW,5.8,-,0.00,Snow,Light Snow,330,2013-02-16 06:41:00
1:53 AM,25.0,21.0,85,30.07,3.0,NNW,4.6,-,0.00,Snow,Light Snow,330,2013-02-16 06:53:00
2:26 AM,24.8,21.2,86,30.01,3.0,North,6.9,-,0.00,Snow,Light Snow,350,2013-02-16 07:26:00
2:47 AM,24.8,19.4,80,30.00,2.5,NNW,6.9,-,0.00,Snow,Light Snow,330,2013-02-16 07:47:00
2:53 AM,25.0,19.9,81,30.06,3.0,NNW,4.6,-,0.00,Snow,Light Snow,330,2013-02-16 07:53:00
3:00 AM,24.8,19.4,80,30.00,9.0,NNW,4.6,-,0.00,,Overcast,330,2013-02-16 08:00:00
3:53 AM,24.1,21.0,88,30.05,10.0,NNW,4.6,-,0.00,,Overcast,330,2013-02-16 08:53:00
4:22 AM,24.8,19.4,80,29.99,2.5,NNW,5.8,-,0.00,Snow,Light Snow,340,2013-02-16 09:22:00
4:30 AM,24.8,19.4,80,29.99,3.0,NW,5.8,-,0.00,Snow,Light Snow,320,2013-02-16 09:30:00
4:53 AM,24.1,19.9,84,30.05,6.0,Calm,Calm,-,0.00,Snow,Light Snow,0,2013-02-16 09:53:00
5:25 AM,24.8,21.2,86,29.99,7.0,Calm,Calm,-,0.00,,Overcast,0,2013-02-16 10:25:00
5:53 AM,24.1,19.0,81,30.05,8.0,North,3.5,-,0.00,Snow,Light Snow,10,2013-02-16 10:53:00
6:53 AM,24.8,17.6,74,29.99,7.0,Calm,Calm,-,N/A,Snow,Light Snow,0,2013-02-16 11:53:00
7:24 AM,24.8,17.6,74,29.99,7.0,Calm,Calm,-,N/A,,Overcast,0,2013-02-16 12:24:00
7:53 AM,23.0,18.0,81,30.05,6.0,Calm,Calm,-,0.00,Snow,Light Snow,0,2013-02-16 12:53:00
8:53 AM,23.0,19.0,85,30.05,3.0,Calm,Calm,-,0.00,Snow,Light Snow,0,2013-02-16 13:53:00
9:53 AM,24.1,19.9,84,30.04,10.0,SSW,4.6,-,0.00,Snow,Light Snow,200,2013-02-16 14:53:00
10:53 AM,25.0,14.0,63,30.04,10.0,Variable,3.5,-,0.02,,Mostly Cloudy,0,2013-02-16 15:53:00
11:53 AM,27.0,16.0,63,30.01,10.0,SW,8.1,-,0.03,,Mostly Cloudy,220,2013-02-16 16:53:00
12:53 PM,27.0,14.0,58,29.99,10.0,West,3.5,-,N/A,,Overcast,260,2013-02-16 17:53:00
1:53 PM,28.0,12.9,53,29.97,10.0,West,10.4,17.3,N/A,,Overcast,270,2013-02-16 18:53:00
2:53 PM,27.0,12.9,56,29.96,10.0,Variable,4.6,-,N/A,,Overcast,0,2013-02-16 19:53:00
3:53 PM,27.0,14.0,58,29.96,10.0,Variable,6.9,-,0.00,,Overcast,0,2013-02-16 20:53:00
4:53 PM,26.1,12.9,58,29.98,10.0,West,8.1,-,N/A,,Overcast,280,2013-02-16 21:53:00
5:53 PM,26.1,10.0,51,29.98,10.0,Variable,5.8,-,N/A,,Overcast,0,2013-02-16 22:53:00
6:53 PM,25.0,10.0,53,29.99,10.0,NNW,3.5,-,N/A,,Scattered Clouds,330,2013-02-16 23:53:00
7:53 PM,23.0,12.0,63,29.98,10.0,Calm,Calm,-,N/A,,Clear,0,2013-02-17 00:53:00
8:53 PM,24.1,10.9,57,29.96,10.0,Calm,Calm,-,N/A,,Clear,0,2013-02-17 01:53:00
9:53 PM,24.1,10.9,57,29.96,10.0,Calm,Calm,-,N/A,,Scattered Clouds,0,2013-02-17 02:53:00
10:53 PM,23.0,14.0,68,29.95,10.0,West,12.7,17.3,N/A,,Overcast,260,2013-02-17 03:53:00
11:25 PM,21.2,17.6,86,29.87,1.8,West,10.4,-,0.00,Snow,Light Snow,270,2013-02-17 04:25:00
11:50 PM,21.2,19.4,93,29.87,2.0,WNW,8.1,-,0.00,Snow,Light Snow,290,2013-02-17 04:50:00
11:53 PM,21.0,19.0,92,29.94,1.8,NW,9.2,-,0.00,Snow,Light Snow,310,2013-02-17 04:53:00